Flag for U.S.A. Weather past 2 weeks in Warren, Michigan, U.S.A.

Now
54 °F

Clear.


Feels Like: 54 °F
Forecast: 55 / 75 °F
Wind: No wind

Location: Detroit City Airport

Current Time: Aug 28, 2015 at 3:45:19 AM

Latest Report: Aug 28, 2015 at 2:53 AM


Visibility: 10 mi

Pressure: 30.16 "Hg

Humidity: 90%

Dew point: 51 °F

Location of WarrenLocation

Historic Weather in Warren — Graph

°F

Warren temperature yesterday

Maximum temperature yesterday: 67 °F (at 2:53 PM)
Minimum temperature yesterday: 56 °F (at 6:53 AM)
Average temperature yesterday: 62 °F

Past Weeks' High & Low Weather Summary

 TemperatureHumidityPressure
High88 °F (Aug 17, 12:53 PM)93% (Aug 20, 1:53 AM)30.22 "Hg (Aug 20, 1:53 AM)
Low54 °F (Aug 28, 2:53 AM)33% (Aug 21, 6:53 PM)29.68 "Hg (Aug 20, 3:04 AM)
Average71 °F67%30.01 "Hg
* Reported Aug 13 2:53 AM — Aug 28 2:53 AM, Warren, Weather by CustomWeather, © 2015

Note: Actual official high and low records may vary slightly from our data, if they occured in-between our weather recording intervals... More about our weather records

Advertising

Warren weather history for previous 24 hours

 ConditionsComfort  
Time TempWeatherWind HumidityBarometerVisibility
2:53 AM
Fri, Aug 28
54 °FClear.No wind90%30.16 "Hg10 mi
1:53 AM55 °FClear.No wind90%30.17 "Hg10 mi
12:53 AM56 °FClear.No wind87%30.18 "Hg9 mi
11:53 PM
Thu, Aug 27
56 °FClear.No wind87%30.19 "Hg10 mi
10:53 PM59 °FClear.No wind81%30.19 "Hg10 mi
9:53 PM61 °FClear.No wind75%30.19 "Hg10 mi
8:53 PM63 °FOvercast.3 mph70%30.18 "Hg10 mi
7:53 PM64 °FOvercast.3 mph68%30.17 "Hg10 mi
6:53 PM64 °FOvercast.3 mph70%30.19 "Hg10 mi
5:53 PM64 °FOvercast.5 mph70%30.18 "Hg10 mi
4:53 PM66 °FOvercast.No wind63%30.17 "Hg10 mi
3:53 PM65 °FOvercast.No wind63%30.17 "Hg10 mi
2:53 PM67 °FOvercast.7 mph61%30.18 "Hg10 mi
1:53 PM66 °FOvercast.7 mph59%30.19 "Hg10 mi
12:53 PM64 °FOvercast.9 mph63%30.21 "Hg10 mi
11:53 AM63 °FOvercast.8 mph68%30.22 "Hg10 mi
10:53 AM63 °FOvercast.6 mph65%30.22 "Hg10 mi
9:53 AM62 °FOvercast.8 mph67%30.21 "Hg10 mi
8:53 AM61 °FSunny.8 mph70%30.19 "Hg10 mi
7:53 AM58 °FSunny.3 mph81%30.19 "Hg10 mi
6:53 AM56 °FClear.3 mph87%30.18 "Hg10 mi
5:53 AM57 °FClear.No wind83%30.16 "Hg10 mi
4:53 AM59 °FClear.3 mph78%30.15 "Hg10 mi
3:53 AM61 °FOvercast.5 mph75%30.15 "Hg10 mi
Weather by CustomWeather, © 2015

See weather overviewHow to use our weather pages